Waarnemingen

Advertentie
Mijn weer
Harsfjarden, Zweden (2489): temperatuur & dauwpunt: 13.10.2018 11:00:00 - 19.10.2018 11:00:00 (CEST)Harsfjarden, Zweden (2489): windsnelheid & windstoten: 13.10.2018 11:00:00 - 19.10.2018 11:00:00 (CEST)Harsfjarden, Zweden (2489): windrichting: 13.10.2018 11:00:00 - 19.10.2018 11:00:00 (CEST)Harsfjarden, Zweden (2489): luchtdruk: 13.10.2018 11:00:00 - 19.10.2018 11:00:00 (CEST)Harsfjarden, Zweden (2489): zicht: 13.10.2018 11:00:00 - 19.10.2018 11:00:00 (CEST)Harsfjarden, Zweden (2489): neerslag: 13.10.2018 11:00:00 - 19.10.2018 11:00:00 (CEST)
Datum & Tijd tt [°C] td [°C] ff [km/u] ff [kn] fx [km/u] fx [kn] dd ppp [hPa] vv [km] rr [mm]
19.10.2018 11:00:00 8,4 5,0 4 2 7 4 W 1023,2 45 0,0
19.10.2018 10:00:00 6,2 5,0 0 0 7 4 N 1023,1 45 0,0
19.10.2018 09:00:00 3,4 3,4 4 2 7 4 WNW 1023,2 50 0,0
19.10.2018 08:00:00 -0,4 -0,4 0 0 4 2 N 1023,0 45 0,0
19.10.2018 07:00:00 0,0 0,0 0 0 4 2 N 1022,5 45 0,0
19.10.2018 06:00:00 0,5 0,4 0 0 4 2 N 1022,4 50 0,0
19.10.2018 05:00:00 0,9 0,9 4 2 4 2 NNW 1022,2 50 0,0
19.10.2018 04:00:00 0,9 0,8 0 0 4 2 N 1022,1 45 0,0
19.10.2018 03:00:00 1,8 1,5 0 0 7 4 N 1021,9 50 0,0
19.10.2018 02:00:00 3,7 2,7 0 0 14 8 N 1022,1 50 0,0
19.10.2018 01:00:00 5,3 3,5 11 6 14 8 NW 1022,1 50 0,0
19.10.2018 00:00:00 2,1 1,8 0 0 7 4 N 1022,0 50 0,0
18.10.2018 23:00:00 2,5 1,9 0 0 4 2 N 1021,6 50 0,0
18.10.2018 22:00:00 3,3 2,4 0 0 7 4 N 1021,1 50 0,0
18.10.2018 21:00:00 4,9 2,9 4 2 7 4 NNW 1020,4 50 0,0
18.10.2018 20:00:00 5,5 3,5 7 4 11 6 NNW 1019,9 50 0,0
18.10.2018 19:00:00 7,3 4,1 7 4 22 12 WNW 1019,2 50 0,0
18.10.2018 18:00:00 10,0 4,6 7 4 14 8 WNW 1018,6 50 0,0
18.10.2018 17:00:00 12,4 5,6 11 6 25 14 WNW 1017,6 45 0,0
18.10.2018 16:00:00 13,2 6,1 14 8 25 14 NW 1017,0 45 0,0
18.10.2018 15:00:00 14,0 5,6 14 8 29 16 WNW 1016,4 45 0,0
18.10.2018 14:00:00 14,2 8,6 11 6 29 16 WNW 1015,8 45 0,0
18.10.2018 13:00:00 12,5 10,2 11 6 25 14 W 1015,7 45 0,0
18.10.2018 12:00:00 12,1 11,2 11 6 25 14 W 1016,0 35 0,0
18.10.2018 11:00:00 11,9 - 7 4 14 8 W 1015,9 13 0,0
18.10.2018 10:00:00 11,6 - 4 2 14 8 ZW 1015,8 6 0,6
18.10.2018 09:00:00 11,2 - 7 4 11 6 W 1015,8 8 0,0
18.10.2018 08:00:00 9,7 - 4 2 7 4 W 1015,4 1,9 0,0
18.10.2018 07:00:00 10,6 - 4 2 7 4 WZW 1015,4 5 0,0
18.10.2018 06:00:00 9,8 - 4 2 7 4 W 1015,5 3,8 0,0
18.10.2018 05:00:00 9,0 - 0 0 4 2 N 1015,5 3,9 0,0
18.10.2018 04:00:00 9,5 - 0 0 4 2 N 1015,7 1,5 0,0
18.10.2018 03:00:00 9,4 - 0 0 7 4 N 1016,2 0,5 0,0
18.10.2018 02:00:00 10,3 - 4 2 7 4 WZW 1016,5 5 0,0
18.10.2018 01:00:00 9,8 - 4 2 7 4 W 1016,7 5 0,0
18.10.2018 00:00:00 9,3 - 4 2 7 4 W 1017,0 3,5 0,0
17.10.2018 23:00:00 8,3 - 0 0 4 2 N 1017,3 5 0,0
17.10.2018 22:00:00 8,1 - 0 0 4 2 N 1017,5 5 0,0
17.10.2018 21:00:00 7,8 - 0 0 4 2 N 1017,6 7 0,0
17.10.2018 20:00:00 7,9 7,9 4 2 7 4 ZO 1017,9 0,2 0,0
17.10.2018 19:00:00 8,6 8,6 4 2 11 6 ZZO 1018,0 0,2 0,0
17.10.2018 18:00:00 8,6 8,6 7 4 11 6 Z 1018,2 0,2 0,0
17.10.2018 17:00:00 9,6 9,6 7 4 14 8 Z 1018,1 0,4 0,0
17.10.2018 16:00:00 11,0 11,0 11 6 18 10 Z 1017,9 1,2 0,0
17.10.2018 15:00:00 12,1 11,6 14 8 14 8 Z 1018,1 7 0,0
17.10.2018 14:00:00 12,8 12,3 11 6 18 10 ZW 1018,2 8 0,0
17.10.2018 13:00:00 12,8 - 11 6 22 12 ZW 1018,2 8 0,0
17.10.2018 12:00:00 10,9 - 4 2 7 4 Z 1018,3 5 0,0
17.10.2018 11:00:00 10,0 - 0 0 7 4 N 1018,4 3,2 0,0
17.10.2018 10:00:00 9,4 - 4 2 7 4 Z 1018,3 0,3 0,0
17.10.2018 09:00:00 8,9 - 4 2 7 4 Z 1018,1 0,2 0,0
17.10.2018 08:00:00 8,6 - 4 2 14 8 ZW 1017,9 0,2 0,0
17.10.2018 07:00:00 8,9 - 7 4 14 8 ZZW 1017,7 0,2 0,0
17.10.2018 06:00:00 9,0 - 0 0 4 2 N 1017,8 0,1 0,0
17.10.2018 05:00:00 9,3 - 4 2 7 4 ZZO 1017,9 0,1 0,0
17.10.2018 04:00:00 9,4 - 4 2 7 4 ZO 1018,3 0,3 0,0
17.10.2018 03:00:00 9,2 - 0 0 7 4 N 1018,6 0,7 0,0
17.10.2018 02:00:00 9,2 - 4 2 4 2 ZO 1018,8 0,2 0,0
17.10.2018 01:00:00 9,2 9,2 4 2 11 6 ZO 1019,1 1,2 0,0
17.10.2018 00:00:00 9,0 9,0 7 4 11 6 ZO 1019,4 0,4 0,0
16.10.2018 23:00:00 9,0 9,0 4 2 7 4 OZO 1019,9 0,2 0,0
16.10.2018 22:00:00 9,0 9,0 4 2 11 6 O 1020,1 0,7 0,0
16.10.2018 21:00:00 9,2 9,1 4 2 11 6 ZZO 1020,3 7 0,0
16.10.2018 20:00:00 9,6 9,1 0 0 11 6 N 1020,6 45 0,0
16.10.2018 19:00:00 10,0 9,1 4 2 11 6 ONO 1020,2 50 0,0
16.10.2018 18:00:00 10,1 9,2 4 2 11 6 O 1019,8 50 0,0
16.10.2018 17:00:00 10,6 9,4 4 2 7 4 O 1019,9 50 0,0
16.10.2018 16:00:00 11,3 9,9 4 2 7 4 O 1019,9 50 0,0
16.10.2018 15:00:00 11,4 9,9 4 2 14 8 O 1019,5 45 0,0
16.10.2018 14:00:00 12,1 10,2 4 2 11 6 OZO 1019,2 45 0,0
16.10.2018 13:00:00 13,0 10,5 7 4 11 6 O 1019,0 45 0,0
16.10.2018 12:00:00 12,7 10,8 4 2 14 8 O 1018,9 40 0,0
16.10.2018 11:00:00 12,3 11,0 7 4 14 8 NO - 30 0,0
16.10.2018 10:00:00 10,3 10,3 7 4 11 6 NNO 1017,9 11 0,0
16.10.2018 09:00:00 7,1 7,1 0 0 4 2 N 1017,2 6 0,0
16.10.2018 08:00:00 5,1 5,1 0 0 4 2 N 1016,5 8 0,0
16.10.2018 07:00:00 4,9 4,9 0 0 7 4 N 1016,0 5 0,0
16.10.2018 06:00:00 5,3 5,3 0 0 4 2 N 1015,5 3,1 0,0
16.10.2018 05:00:00 5,5 5,5 0 0 4 2 N 1015,0 2,8 0,0
16.10.2018 04:00:00 5,8 5,8 0 0 4 2 N 1014,9 3,1 0,0
16.10.2018 03:00:00 6,6 6,6 0 0 4 2 N 1014,6 4,5 0,0
16.10.2018 02:00:00 7,2 7,2 0 0 7 4 N 1014,8 5 0,0
16.10.2018 01:00:00 8,6 8,5 4 2 14 8 WZW 1014,6 11 0,0
16.10.2018 00:00:00 9,1 8,8 4 2 11 6 ZW 1014,5 13 0,0
15.10.2018 23:00:00 8,9 8,6 0 0 14 8 N 1014,7 12 0,0
15.10.2018 22:00:00 8,8 8,8 7 4 14 8 ZZW 1014,7 11 0,0
15.10.2018 21:00:00 7,7 7,4 0 0 14 8 N 1014,8 7 0,0
15.10.2018 20:00:00 9,2 8,9 7 4 22 12 ZZW 1014,9 12 0,0
15.10.2018 19:00:00 10,0 9,4 18 10 25 14 ZZW 1014,9 13 0,0
15.10.2018 18:00:00 10,2 9,6 18 10 29 16 Z 1014,8 12 0,0
15.10.2018 17:00:00 10,9 10,0 22 12 29 16 ZZW 1015,0 14 0,0
15.10.2018 16:00:00 11,8 9,9 14 8 22 12 Z 1015,0 18 0,0
15.10.2018 15:00:00 12,5 10,0 18 10 22 12 Z 1015,3 19 0,0
15.10.2018 14:00:00 13,0 10,4 18 10 22 12 Z 1015,7 19 0,0
15.10.2018 13:00:00 13,0 10,2 14 8 22 12 Z 1015,6 17 0,0
15.10.2018 12:00:00 12,3 10,0 18 10 25 14 Z 1015,7 16 0,0
15.10.2018 11:00:00 12,3 10,4 11 6 25 14 Z 1015,9 16 0,0
15.10.2018 10:00:00 10,9 9,7 14 8 22 12 Z 1015,7 12 0,0
15.10.2018 09:00:00 10,4 9,6 7 4 14 8 Z 1015,6 11 0,0
15.10.2018 08:00:00 8,4 8,4 0 0 7 4 N 1015,3 5 0,0
15.10.2018 07:00:00 8,5 8,4 4 2 18 10 ZZW 1015,2 7 0,0
15.10.2018 06:00:00 10,1 9,5 14 8 22 12 ZZW 1015,0 12 0,0
15.10.2018 05:00:00 9,6 9,1 11 6 22 12 Z 1015,1 11 0,0
15.10.2018 04:00:00 10,5 9,7 14 8 22 12 ZZW 1015,1 14 0,0
15.10.2018 03:00:00 10,8 9,9 14 8 25 14 ZZW 1015,0 15 0,0
15.10.2018 02:00:00 11,3 10,0 14 8 25 14 ZZW 1015,2 17 0,0
15.10.2018 01:00:00 11,6 10,2 11 6 29 16 ZZW 1015,6 18 0,0
15.10.2018 00:00:00 11,4 10,0 14 8 29 16 ZZW 1015,6 17 0,0
14.10.2018 23:00:00 11,0 10,1 11 6 18 10 ZZW 1015,9 12 0,0
14.10.2018 22:00:00 10,6 9,8 11 6 18 10 ZZW 1016,1 11 0,0
14.10.2018 21:00:00 10,0 10,0 7 4 11 6 Z 1016,7 9 0,0
14.10.2018 20:00:00 8,3 8,3 0 0 4 2 N 1016,8 0,5 0,0
14.10.2018 19:00:00 9,4 9,3 4 2 11 6 Z 1016,9 6 0,0
14.10.2018 18:00:00 10,3 9,8 7 4 14 8 Z 1017,3 8 0,0
14.10.2018 17:00:00 12,0 10,7 7 4 29 16 Z 1017,9 12 0,0
14.10.2018 16:00:00 13,4 10,6 18 10 29 16 Z 1018,3 15 0,0
14.10.2018 15:00:00 13,3 10,8 18 10 29 16 Z 1018,9 12 0,0
14.10.2018 14:00:00 13,2 11,1 14 8 29 16 Z 1019,5 10 0,0
14.10.2018 13:00:00 12,8 10,9 18 10 29 16 Z 1020,0 8 0,0
14.10.2018 12:00:00 13,0 10,7 11 6 22 12 Z 1020,4 9 0,0
14.10.2018 11:00:00 12,7 10,8 11 6 22 12 Z 1020,5 10 0,0
14.10.2018 10:00:00 11,6 10,3 7 4 18 10 Z 1020,8 9 0,0
14.10.2018 09:00:00 10,4 9,9 14 8 18 10 Z 1020,6 6 0,0
14.10.2018 08:00:00 9,2 9,2 11 6 18 10 ZZW 1020,4 3,7 0,0
14.10.2018 07:00:00 7,4 7,4 7 4 14 8 ZZW 1020,7 1,8 0,0
14.10.2018 06:00:00 8,9 8,9 11 6 14 8 Z 1020,9 3,4 0,0
14.10.2018 05:00:00 8,9 8,8 4 2 14 8 Z 1021,1 2,6 0,0
14.10.2018 04:00:00 9,9 9,6 11 6 14 8 Z 1021,2 6 0,0
14.10.2018 03:00:00 8,7 8,7 7 4 11 6 ZZW 1021,5 4,5 0,0
14.10.2018 02:00:00 9,0 8,5 4 2 14 8 Z 1021,7 4,2 0,0
14.10.2018 01:00:00 10,0 9,7 11 6 14 8 Z 1021,6 6 0,0
14.10.2018 00:00:00 10,3 9,8 7 4 14 8 ZZW 1021,7 6 0,0
13.10.2018 23:00:00 10,0 9,5 11 6 18 10 Z 1021,9 5 0,0
13.10.2018 22:00:00 10,2 9,7 7 4 14 8 Z 1022,1 6 0,0
13.10.2018 21:00:00 9,4 9,3 4 2 7 4 Z 1022,2 5 0,0
13.10.2018 20:00:00 9,5 9,4 0 0 4 2 N 1022,2 5 0,0
13.10.2018 19:00:00 9,9 9,3 0 0 14 8 N 1022,1 7 0,0
13.10.2018 18:00:00 11,6 10,2 11 6 14 8 Z 1022,1 11 0,0
13.10.2018 17:00:00 13,0 10,5 11 6 18 10 ZZW 1022,1 15 0,0
13.10.2018 16:00:00 14,4 10,8 11 6 18 10 Z 1022,0 17 0,0
13.10.2018 15:00:00 15,0 11,2 11 6 18 10 Z 1022,1 17 0,0
13.10.2018 14:00:00 16,4 11,7 11 6 18 10 Z 1022,4 18 0,0
13.10.2018 13:00:00 14,9 11,3 14 8 22 12 Z 1022,8 15 0,0
13.10.2018 12:00:00 14,0 11,3 18 10 22 12 Z 1023,2 17 0,0
13.10.2018 11:00:00 - - - - - - - - - -

tt = temperatuur
td = dauwpunt
ff = windsnelheid
fx = windstoten
dd = windrichting
ppp = luchtdruk
vv = zicht
rr = neerslag

Weerstations in de omgeving